"2009-09-06 00:00:00",1215649,6.124,168.7,2.342,0.271,20.68,109.2686,23.02,24.21,28.49,0,111,13.15,23.85,130.7
"2009-09-06 00:00:30",1215650,6.769,167.3,3.79,0.194,20.64,109.2633,23,24.18,29.18,0,111,13.15,23.83,129.3
"2009-09-06 00:01:00",1215651,6.651,167.5,4.61,0.418,20.57,109.2377,22.94,24.16,29.68,0,111,13.15,23.77,129.5
"2009-09-06 00:01:30",1215652,6.432,167,3.612,0.504,20.57,109.2349,22.93,24.13,29.86,0,111,13.15,23.76,129.0
"2009-09-06 00:02:00",1215653,6.774,166.3,4.443,0.356,20.64,109.2199,22.89,24.09,30.05,0,111,13.15,23.72,128.3
"2009-09-06 00:02:30",1215654,7.4,168.7,2.698,0.404,20.63,109.2027,22.85,24.05,30.31,0,111,13.15,23.68,130.7
"2009-09-06 00:03:00",1215655,8.22,174.2,1.984,0.389,20.6,109.2028,22.85,24.03,30.51,0,111,13.15,23.68,136.2
"2009-09-06 00:03:30",1215656,7.115,173.3,1.598,0.577,20.58,109.1798,22.79,23.99,31.08,0,111,13.15,23.62,135.3
"2009-09-06 00:04:00",1215657,8.33,176.9,2.821,0.533,20.68,109.1807,22.79,23.96,30.71,0,111,13.15,23.62,138.9
"2009-09-06 00:04:30",1215658,8.9,178.6,2.163,0.335,20.93,109.1806,22.79,23.92,29.85,0,111,13.14,23.62,140.6
"2009-09-06 00:05:00",1215659,8.35,175.9,1.393,0.157,21.01,109.1712,22.77,23.88,29.31,0,111,13.14,23.60,137.9
"2009-09-06 00:05:30",1215660,8.5,174.9,2.173,0.234,21.03,109.163,22.74,23.87,29.26,0,111,13.14,23.58,136.9
"2009-09-06 00:06:00",1215661,8.72,176.8,1.332,0.225,20.98,109.1611,22.74,23.83,29.43,0,111,13.14,23.57,138.8
"2009-09-06 00:06:30",1215662,8.82,181.6,0.97,0.112,20.96,109.162,22.74,23.81,29.51,0,111,13.14,23.57,143.6
"2009-09-06 00:07:00",1215663,8.63,182.2,0.734,0.179,20.95,109.1632,22.75,23.79,29.6,0,111,13.14,23.58,144.2
"2009-09-06 00:07:30",1215664,8.52,180.2,1.191,0.167,20.93,109.1638,22.75,23.78,29.69,0,111,13.14,23.58,142.2
"2009-09-06 00:08:00",1215665,8.44,178.9,1.202,0.128,20.96,109.1666,22.75,23.77,29.43,0,111,13.14,23.59,140.9
"2009-09-06 00:08:30",1215666,8.31,180.7,0.856,0.182,20.92,109.1678,22.76,23.77,29.55,0,111,13.14,23.59,142.7
"2009-09-06 00:09:00",1215667,8.2,181.3,0.774,0.126,20.91,109.1706,22.76,23.76,29.71,0,111,13.15,23.60,143.3
"2009-09-06 00:09:30",1215668,8.03,181.4,0.968,0.136,20.91,109.1706,22.76,23.75,29.7,0,111,13.15,23.60,143.4
"2009-09-06 00:10:00",1215669,8.17,183.3,0.84,0.192,20.9,109.1706,22.76,23.76,29.73,0,111,13.15,23.60,145.3
"2009-09-06 00:10:30",1215670,8.47,182.7,1.525,0.18,20.9,109.1706,22.76,23.75,29.77,0,111,13.15,23.60,144.7
"2009-09-06 00:11:00",1215671,8.04,185.1,1.159,0.281,20.99,109.1706,22.76,23.74,29.73,0,111,13.15,23.60,147.1
"2009-09-06 00:11:30",1215672,8.31,183.3,1.287,0.202,20.94,109.1706,22.76,23.75,29.74,0,111,13.15,23.60,145.3
"2009-09-06 00:12:00",1215673,8.26,182.9,0.954,0.208,20.94,109.1706,22.76,23.75,29.74,0,111,13.15,23.60,144.9
"2009-09-06 00:12:30",1215674,8.14,183,0.7,0.147,20.92,109.1706,22.76,23.75,29.77,0,111,13.16,23.60,145.0
"2009-09-06 00:13:00",1215675,7.904,184,0.567,0.157,20.92,109.1706,22.76,23.73,29.85,0,111,13.16,23.60,146.0
"2009-09-06 00:13:30",1215676,7.733,184.9,1.188,0.178,20.83,109.1706,22.76,23.75,30.11,0,111,13.16,23.60,146.9
"2009-09-06 00:14:00",1215677,7.695,185.5,0.8,0.163,20.95,109.1706,22.76,23.75,29.98,0,111,13.16,23.60,147.5
"2009-09-06 00:14:30",1215678,8.22,183.2,2.29,0.218,20.96,109.1706,22.76,23.74,29.8,0,111,13.16,23.60,145.2
"2009-09-06 00:15:00",1215679,8.09,180.2,2.3,0.195,20.95,109.1709,22.76,23.74,29.45,0,111,13.16,23.60,142.2
"2009-09-06 00:15:30",1215680,8.3,181.3,1.546,0.212,20.98,109.1706,22.76,23.74,29.41,0,111,13.15,23.60,143.3
"2009-09-06 00:16:00",1215681,7.957,181.8,1.481,0.199,20.95,109.1706,22.76,23.75,29.46,0,111,13.15,23.60,143.8
"2009-09-06 00:16:30",1215682,7.694,180.2,1.346,0.137,20.92,109.1712,22.77,23.74,29.3,0,111,13.16,23.60,142.2
"2009-09-06 00:17:00",1215683,7.703,183.3,1.524,0.204,20.93,109.1718,22.77,23.75,29.48,0,111,13.16,23.60,145.3
"2009-09-06 00:17:30",1215684,7.563,183.2,2.201,0.293,20.92,109.1715,22.77,23.74,29.54,0,111,13.16,23.60,145.2
"2009-09-06 00:18:00",1215685,7.36,182.5,1.581,0.193,20.96,109.1727,22.77,23.76,29.45,0,111,13.16,23.60,144.5
"2009-09-06 00:18:30",1215686,7.24,179.2,1.553,0.259,20.94,109.1752,22.78,23.75,29.36,0,111,13.16,23.61,141.2
"2009-09-06 00:19:00",1215687,6.763,181.1,2.28,0.347,20.88,109.174,22.77,23.75,29.49,0,111,13.16,23.60,143.1
"2009-09-06 00:19:30",1215688,6.469,183.9,1.216,0.215,20.82,109.1737,22.77,23.75,29.91,0,111,13.16,23.60,145.9
"2009-09-06 00:20:00",1215689,6.91,183.8,3.425,0.257,20.84,109.1747,22.77,23.75,29.98,0,111,13.16,23.61,145.8
"2009-09-06 00:20:30",1215690,6.306,185.6,2.481,0.206,20.85,109.1759,22.78,23.75,30.15,0,111,13.16,23.61,147.6
"2009-09-06 00:21:00",1215691,5.893,184.8,3.184,0.457,20.72,109.1738,22.77,23.76,30.21,0,111,13.16,23.60,146.8
"2009-09-06 00:21:30",1215692,5.018,188,2.139,0.176,20.62,109.1761,22.78,23.74,30.88,0,111,13.16,23.61,150.0
"2009-09-06 00:22:00",1215693,5.57,188.3,2.797,0.307,20.64,109.1725,22.77,23.74,30.88,0,111,13.16,23.60,150.3
"2009-09-06 00:22:30",1215694,5.533,186.9,2.39,0.301,20.55,109.1722,22.77,23.74,31.21,0,111,13.16,23.60,148.9
"2009-09-06 00:23:00",1215695,5.372,184.5,2.71,0.356,20.57,109.1708,22.76,23.74,30.95,0,111,13.16,23.60,146.5
"2009-09-06 00:23:30",1215696,4.969,185.2,2.376,0.257,20.57,109.169,22.76,23.75,30.96,0,111,13.16,23.59,147.2
"2009-09-06 00:24:00",1215697,5.206,188.9,4.113,0.171,20.52,109.1648,22.75,23.74,31.25,0,111,13.16,23.58,150.9
"2009-09-06 00:24:30",1215698,5.141,186.3,2.747,0.394,20.69,109.1645,22.75,23.73,31.14,0,111,13.16,23.58,148.3
"2009-09-06 00:25:00",1215699,4.82,187.9,3.237,0.184,20.54,109.1645,22.75,23.73,31.14,0,111,13.16,23.58,149.9
"2009-09-06 00:25:30",1215700,5.255,189.8,3.404,0.221,20.73,109.1673,22.76,23.72,31.09,0,110.9,13.16,23.59,151.8
"2009-09-06 00:26:00",1215701,4.829,187.3,2.687,0.17,20.67,109.1575,22.73,23.72,31.37,0,110.9,13.16,23.56,149.3
"2009-09-06 00:26:30",1215702,4.689,185.1,2.68,0.15,20.5,109.1435,22.69,23.7,31.53,0,110.9,13.16,23.53,147.1
"2009-09-06 00:27:00",1215703,4.74,182.4,2.672,0.188,20.51,109.138,22.68,23.68,31.65,0,111,13.16,23.51,144.4
"2009-09-06 00:27:30",1215704,4.08,185.6,3.511,0.29,20.51,109.139,22.68,23.68,31.56,0,111,13.17,23.51,147.6
"2009-09-06 00:28:00",1215705,4.303,184.6,1.964,0.179,20.52,109.1391,22.68,23.66,31.67,0,111,13.16,23.51,146.6
"2009-09-06 00:28:30",1215706,4.226,182.1,1.993,0.138,20.53,109.1352,22.67,23.65,31.67,0,110.9,13.16,23.50,144.1
"2009-09-06 00:29:00",1215707,4.14,186,2.79,0.184,20.54,109.1189,22.63,23.65,31.79,0,111,13.17,23.46,148.0
"2009-09-06 00:29:30",1215708,4.244,186.1,1.96,0.175,20.53,109.1065,22.6,23.63,31.79,0,111,13.16,23.43,148.1
"2009-09-06 00:30:00",1215709,4.876,180.5,2.779,0.193,20.53,109.1062,22.6,23.62,31.78,0,110.9,13.16,23.43,142.5
"2009-09-06 00:30:30",1215710,4.74,180.8,1.881,0.12,20.55,109.1051,22.6,23.61,31.62,0,111,13.17,23.43,142.8
"2009-09-06 00:31:00",1215711,4.919,181.1,1.499,0.17,20.61,109.0824,22.54,23.58,31.21,0,110.9,13.17,23.37,143.1
"2009-09-06 00:31:30",1215712,4.919,178,1.824,0.178,20.58,109.0728,22.51,23.57,31.07,0,110.9,13.17,23.34,140.0
"2009-09-06 00:32:00",1215713,4.748,180.6,3.047,0.207,20.55,109.0725,22.51,23.56,31.17,0,110.9,13.17,23.34,142.6
"2009-09-06 00:32:30",1215714,4.568,183.9,2.389,0.325,20.62,109.0663,22.5,23.55,31.27,0,110.9,13.17,23.33,145.9
"2009-09-06 00:33:00",1215715,4.997,182.1,7.667,0.402,20.81,109.0461,22.44,23.53,30.94,0,110.9,13.17,23.27,144.1
"2009-09-06 00:33:30",1215716,5.119,184.4,3.841,0.213,20.86,109.0388,22.43,23.51,30.67,0,110.9,13.17,23.26,146.4
"2009-09-06 00:34:00",1215717,5.953,179.9,6.71,0.365,21.09,109.0388,22.43,23.49,30.15,0,110.9,13.17,23.26,141.9
"2009-09-06 00:34:30",1215718,5.879,175.2,2.653,0.288,21.03,109.0348,22.42,23.47,29.74,0,110.9,13.17,23.25,137.2
"2009-09-06 00:35:00",1215719,5.538,182.1,2.424,0.155,20.96,109.0214,22.38,23.46,29.99,0,110.9,13.17,23.21,144.1
"2009-09-06 00:35:30",1215720,5.201,186,2.111,0.38,21.05,109.0115,22.36,23.45,29.88,0,110.9,13.17,23.19,148.0
"2009-09-06 00:36:00",1215721,4.964,185.5,2.324,0.29,20.76,109.0062,22.34,23.43,30.06,0,110.9,13.18,23.17,147.5
"2009-09-06 00:36:30",1215722,5.198,183.1,3.303,0.228,20.76,109.0051,22.34,23.43,30.33,0,110.9,13.18,23.17,145.1
"2009-09-06 00:37:00",1215723,5.425,181.8,1.725,0.329,21.05,109.0054,22.34,23.41,29.91,0,110.9,13.18,23.17,143.8
"2009-09-06 00:37:30",1215724,5.55,181.4,1.142,0.134,21,109.0054,22.34,23.4,29.78,0,110.9,13.18,23.17,143.4
"2009-09-06 00:38:00",1215725,5.377,181.8,1.313,0.198,21.02,109.0054,22.34,23.39,29.81,0,110.9,13.18,23.17,143.8
"2009-09-06 00:38:30",1215726,5.374,182.7,1.711,0.238,20.97,109.0054,22.34,23.39,29.86,0,110.9,13.18,23.17,144.7
"2009-09-06 00:39:00",1215727,5.013,182.6,2.438,0.131,20.94,109.0063,22.34,23.39,29.98,0,110.9,13.18,23.17,144.6
"2009-09-06 00:39:30",1215728,5.411,181.1,1.941,0.232,20.84,109.0075,22.35,23.38,29.98,0,110.9,13.18,23.18,143.1
"2009-09-06 00:40:00",1215729,4.858,176.2,3.633,0.213,20.48,109.0087,22.35,23.38,30.51,0,110.9,13.18,23.18,138.2
"2009-09-06 00:40:30",1215730,5.294,180.1,1.971,0.217,20.44,109.0145,22.36,23.38,30.87,0,110.9,13.18,23.19,142.1
"2009-09-06 00:41:00",1215731,5.541,181.4,0.597,0.08,20.43,109.0155,22.37,23.38,30.85,0,110.9,13.18,23.20,143.4
"2009-09-06 00:41:30",1215732,5.194,182.9,0.813,0.102,20.5,109.0188,22.37,23.37,30.71,0,110.9,13.18,23.20,144.9
"2009-09-06 00:42:00",1215733,5.217,182.2,0.837,0.134,20.53,109.0231,22.39,23.38,30.54,0,110.9,13.18,23.22,144.2
"2009-09-06 00:42:30",1215734,4.913,177.4,3.119,0.279,20.38,109.029,22.4,23.39,30.95,0,110.9,13.18,23.23,139.4
"2009-09-06 00:43:00",1215735,4.746,174.3,1.684,0.222,20.28,109.0284,22.4,23.38,31.43,0,110.9,13.18,23.23,136.3
"2009-09-06 00:43:30",1215736,4.712,175,0.686,0.08,20.29,109.0154,22.37,23.38,31.53,0,110.9,13.18,23.20,137.0
"2009-09-06 00:44:00",1215737,4.924,170.8,5.058,0.197,20.27,108.9994,22.32,23.36,31.57,0,110.9,13.19,23.15,132.8
"2009-09-06 00:44:30",1215738,4.504,165.4,8.19,0.446,20.27,108.9986,22.32,23.35,31.61,0,110.9,13.19,23.15,127.4
"2009-09-06 00:45:00",1215739,4.899,174.6,3.033,0.181,20.26,108.9948,22.31,23.35,31.73,0,110.9,13.18,23.14,136.6
"2009-09-06 00:45:30",1215740,4.73,180,1.37,0.12,20.86,108.9714,22.25,23.31,31.04,0,110.9,13.18,23.08,142.0
"2009-09-06 00:46:00",1215741,4.919,183.6,2.285,0.186,21.07,108.9695,22.25,23.31,30.23,0,110.9,13.18,23.08,145.6
"2009-09-06 00:46:30",1215742,5.431,183.3,1.407,0.116,21.2,108.9679,22.24,23.28,29.96,0,110.9,13.17,23.07,145.3
"2009-09-06 00:47:00",1215743,5.172,182.3,2.904,0.176,21.15,108.9689,22.25,23.27,29.89,0,110.9,13.17,23.08,144.3
"2009-09-06 00:47:30",1215744,4.977,177.3,2.527,0.165,21.09,108.9659,22.24,23.25,29.93,0,110.9,13.17,23.07,139.3
"2009-09-06 00:48:00",1215745,5.44,177.5,2.378,0.106,21.09,108.9588,22.22,23.24,29.8,0,110.9,13.17,23.05,139.5
"2009-09-06 00:48:30",1215746,5.13,178.9,1.171,0.127,21.03,108.9607,22.23,23.23,29.91,0,110.9,13.18,23.05,140.9
"2009-09-06 00:49:00",1215747,5.083,181.3,1.642,0.125,21.01,108.9619,22.23,23.23,30.01,0,110.9,13.17,23.06,143.3
"2009-09-06 00:49:30",1215748,4.874,182.1,1.799,0.21,20.94,108.9639,22.23,23.22,29.87,0,110.9,13.18,23.06,144.1
"2009-09-06 00:50:00",1215749,5.352,175.5,1.678,0.138,21.05,108.9676,22.24,23.22,29.84,0,110.9,13.18,23.07,137.5
"2009-09-06 00:50:30",1215750,5.216,178.1,1.964,0.172,21.01,108.9741,22.26,23.21,29.8,0,110.9,13.19,23.09,140.1
"2009-09-06 00:51:00",1215751,5.004,180.7,0.846,0.081,21.02,108.9744,22.26,23.21,29.93,0,110.9,13.19,23.09,142.7
"2009-09-06 00:51:30",1215752,4.919,178.2,1.249,0.144,21.06,108.9744,22.26,23.21,29.82,0,110.9,13.19,23.09,140.2
"2009-09-06 00:52:00",1215753,4.411,179.2,1.284,0.189,20.99,108.9744,22.26,23.23,29.9,0,110.9,13.19,23.09,141.2
"2009-09-06 00:52:30",1215754,4.459,184.1,2.824,0.085,20.84,108.9744,22.26,23.23,30.1,0,110.9,13.19,23.09,146.1
"2009-09-06 00:53:00",1215755,4.626,189,1.383,0.106,20.75,108.9749,22.26,23.22,30.19,0,110.9,13.19,23.09,151.0
"2009-09-06 00:53:30",1215756,4.491,190.6,1.351,0.065,20.7,108.9752,22.26,23.25,30.1,0,110.9,13.19,23.09,152.6
"2009-09-06 00:54:00",1215757,4.485,188.9,1.65,0.046,20.87,108.9777,22.27,23.24,30.05,0,110.9,13.19,23.10,150.9
"2009-09-06 00:54:30",1215758,4.269,188.7,0.325,0.083,20.9,108.9822,22.28,23.26,29.99,0,110.9,13.19,23.11,150.7
"2009-09-06 00:55:00",1215759,4.267,190.5,1.078,0.111,20.95,108.9856,22.29,23.26,30,0,110.9,13.19,23.12,152.5
"2009-09-06 00:55:30",1215760,4.67,185.5,1.747,0.165,21.06,108.987,22.29,23.28,29.75,0,110.9,13.19,23.12,147.5
"2009-09-06 00:56:00",1215761,4.489,186.2,3.662,0.208,20.99,108.9895,22.3,23.27,29.55,0,110.9,13.19,23.13,148.2
"2009-09-06 00:56:30",1215762,4.443,194.6,3.562,0.192,20.91,108.994,22.31,23.27,29.55,0,110.9,13.19,23.14,156.6
"2009-09-06 00:57:00",1215763,4.759,200.2,1.589,0.116,20.43,108.9974,22.32,23.28,29.84,0,110.9,13.19,23.15,162.2
"2009-09-06 00:57:30",1215764,4.843,197.8,0.632,0.043,20.15,109.0011,22.33,23.29,30.16,0,110.9,13.19,23.16,159.8
"2009-09-06 00:58:00",1215765,4.605,193.4,1.258,0.083,20.1,108.9994,22.32,23.29,30.55,0,110.9,13.19,23.15,155.4
"2009-09-06 00:58:30",1215766,4.636,192.3,0.874,0.064,20.09,108.9966,22.32,23.29,30.85,0,110.9,13.19,23.15,154.3
"2009-09-06 00:59:00",1215767,4.646,194.1,0.795,0.046,20.11,108.9926,22.31,23.29,30.93,0,110.9,13.19,23.14,156.1
"2009-09-06 00:59:30",1215768,4.781,196.9,2.179,0.074,20.26,108.9819,22.28,23.31,30.69,0,110.9,13.19,23.11,158.9
"2009-09-06 01:00:00",1215769,4.641,201.4,0.907,0.177,20.56,108.9758,22.26,23.28,30.11,0,110.9,13.19,23.09,163.4
"2009-09-06 01:00:30",1215770,4.773,198.3,2.259,0.273,20.47,108.9744,22.26,23.28,29.87,0,110.9,13.19,23.09,160.3
"2009-09-06 01:01:00",1215771,5.231,197.4,1.364,0.178,20.2,108.9744,22.26,23.29,30.27,0,110.9,13.19,23.09,159.4
"2009-09-06 01:01:30",1215772,5.51,199.7,1.521,0.142,20.39,108.9744,22.26,23.28,30.04,0,110.9,13.19,23.09,161.7
"2009-09-06 01:02:00",1215773,5.707,202.2,0.609,0.048,20.32,108.969,22.25,23.26,30.05,0,110.9,13.19,23.08,164.2
"2009-09-06 01:02:30",1215774,5.728,202.1,0.59,0.103,20.39,108.9547,22.21,23.26,29.88,0,110.9,13.19,23.04,164.1
"2009-09-06 01:03:00",1215775,5.834,204.4,0.97,0.206,20.41,108.9437,22.18,23.23,29.61,0,110.9,13.19,23.01,166.4
"2009-09-06 01:03:30",1215776,5.722,204.2,1.244,0.164,20.44,108.9406,22.17,23.23,29.51,0,110.9,13.19,23.00,166.2
"2009-09-06 01:04:00",1215777,5.661,207,1.374,0.074,20.58,108.9412,22.18,23.21,29.51,0,110.9,13.19,23.00,169.0
"2009-09-06 01:04:30",1215778,5.527,209.2,0.661,0.096,20.45,108.9421,22.18,23.21,29.53,0,110.9,13.19,23.01,171.2
"2009-09-06 01:05:00",1215779,5.427,209.7,0.72,0.059,20.43,108.9306,22.15,23.19,29.53,0,110.9,13.19,22.98,171.7
"2009-09-06 01:05:30",1215780,5.29,212.7,0.58,0.092,20.55,108.9152,22.11,23.18,29.54,0,110.9,13.19,22.94,174.7
"2009-09-06 01:06:00",1215781,5.483,213.3,0.822,0.073,20.4,108.9102,22.1,23.16,29.63,0,110.9,13.19,22.92,175.3
"2009-09-06 01:06:30",1215782,5.381,214.3,0.619,0.099,20.51,108.913,22.1,23.15,29.69,0,110.9,13.19,22.93,176.3
"2009-09-06 01:07:00",1215783,5.318,213.8,1.254,0.102,20.49,108.9139,22.11,23.14,29.76,0,110.9,13.19,22.93,175.8
"2009-09-06 01:07:30",1215784,5.296,214.7,1.25,0.041,20.35,108.9105,22.1,23.12,29.98,0,110.9,13.19,22.93,176.7
"2009-09-06 01:08:00",1215785,5.425,213.5,1.325,0.146,20.25,108.9044,22.08,23.11,30.34,0,110.9,13.2,22.91,175.5
"2009-09-06 01:08:30",1215786,5.642,211.6,0.967,0.056,20.08,108.8914,22.05,23.09,30.4,0,110.9,13.2,22.88,173.6
"2009-09-06 01:09:00",1215787,5.633,207.6,0.794,0.062,19.88,108.8835,22.03,23.09,30.55,0,110.9,13.2,22.86,169.6
"2009-09-06 01:09:30",1215788,5.225,205.4,1.439,0.095,20.18,108.8839,22.03,23.09,30.84,0,110.9,13.2,22.86,167.4
"2009-09-06 01:10:00",1215789,5.356,204.2,1.231,0.118,20.1,108.8845,22.03,23.06,31.16,0,110.9,13.2,22.86,166.2
"2009-09-06 01:10:30",1215790,5.3,200.6,1.176,0.169,20.1,108.8857,22.03,23.05,31.19,0,110.9,13.2,22.86,162.6
"2009-09-06 01:11:00",1215791,5.146,199.8,0.94,0.075,20.14,108.8766,22.01,23.04,31.48,0,110.9,13.2,22.84,161.8
"2009-09-06 01:11:30",1215792,5.129,199.5,0.623,0.111,19.98,108.8616,21.97,23.02,31.61,0,110.9,13.2,22.80,161.5
"2009-09-06 01:12:00",1215793,5.293,197.7,1.523,0.101,19.97,108.8605,21.97,23.02,31.59,0,110.9,13.2,22.80,159.7
"2009-09-06 01:12:30",1215794,5.3,196.7,1.068,0.088,20.02,108.8633,21.98,23,31.6,0,110.9,13.2,22.80,158.7
"2009-09-06 01:13:00",1215795,5.386,196,1.464,0.09,20.02,108.8636,21.98,22.99,31.48,0,110.9,13.2,22.80,158.0
"2009-09-06 01:13:30",1215796,5.603,195.6,1.078,0.205,20.03,108.8474,21.93,22.96,31.45,0,110.9,13.2,22.76,157.6
"2009-09-06 01:14:00",1215797,5.668,194.7,0.831,0.121,19.95,108.8344,21.9,22.94,31.4,0,110.9,13.2,22.73,156.7
"2009-09-06 01:14:30",1215798,5.521,193.9,0.616,0.074,19.94,108.8393,21.91,22.93,31.47,0,110.9,13.2,22.74,155.9
"2009-09-06 01:15:00",1215799,5.655,193.9,1.068,0.114,20.1,108.8259,21.88,22.9,31.39,0,110.9,13.2,22.71,155.9
"2009-09-06 01:15:30",1215800,5.94,195.1,1.131,0.089,20.04,108.8068,21.83,22.88,31.27,0,110.9,13.2,22.66,157.1
"2009-09-06 01:16:00",1215801,5.532,198.1,2.502,0.221,20.14,108.808,21.83,22.86,31.4,0,110.9,13.2,22.66,160.1
"2009-09-06 01:16:30",1215802,5.547,199.3,1.546,0.175,20.18,108.792,21.79,22.84,31.6,0,110.9,13.2,22.62,161.3
"2009-09-06 01:17:00",1215803,5.24,200.4,1.911,0.196,20.1,108.7752,21.75,22.81,31.75,0,110.9,13.2,22.58,162.4
"2009-09-06 01:17:30",1215804,5.177,202.8,4.303,0.321,20.09,108.7749,21.75,22.78,31.74,0,110.9,13.2,22.58,164.8
"2009-09-06 01:18:00",1215805,5.253,204.6,3.238,0.185,20.19,108.7583,21.71,22.77,31.73,0,110.9,13.2,22.53,166.6
"2009-09-06 01:18:30",1215806,5.283,200.6,3.533,0.147,20.2,108.7411,21.66,22.74,31.77,0,110.9,13.2,22.49,162.6
"2009-09-06 01:19:00",1215807,5.244,211,4.883,0.246,20.17,108.7411,21.66,22.7,31.83,0,110.9,13.2,22.49,173.0
"2009-09-06 01:19:30",1215808,4.864,211.8,5.856,0.271,20.29,108.7386,21.66,22.68,32.25,0,110.9,13.2,22.48,173.8
"2009-09-06 01:20:00",1215809,5.581,205.8,5.073,0.345,20.33,108.7195,21.61,22.65,32.41,0,110.9,13.2,22.43,167.8
"2009-09-06 01:20:30",1215810,4.82,211.5,5.157,0.368,20.32,108.7082,21.58,22.64,32.59,0,110.9,13.2,22.40,173.5
"2009-09-06 01:21:00",1215811,3.634,217,5.366,0.263,20.43,108.7074,21.57,22.62,33,0,110.9,13.2,22.40,179.0
"2009-09-06 01:21:30",1215812,3.856,203.3,6.845,0.509,20.48,108.7074,21.57,22.61,33.11,0,110.9,13.2,22.40,165.3
"2009-09-06 01:22:00",1215813,4.834,180.7,8.76,0.329,20.49,108.7057,21.57,22.59,32.86,0,110.9,13.2,22.40,142.7
"2009-09-06 01:22:30",1215814,4.86,188.7,10.27,0.421,20.47,108.6891,21.53,22.57,32.08,0,110.9,13.2,22.36,150.7
"2009-09-06 01:23:00",1215815,3.455,214.7,11.41,0.418,20.37,108.679,21.5,22.56,32.44,0,110.8,13.2,22.33,176.7
"2009-09-06 01:23:30",1215816,2.878,201.9,6.728,0.611,20.41,108.6739,21.49,22.55,33.13,0,110.9,13.2,22.32,163.9
"2009-09-06 01:24:00",1215817,3.864,190.7,6.123,0.33,20.49,108.6736,21.49,22.54,33.23,0,110.9,13.2,22.32,152.7
"2009-09-06 01:24:30",1215818,4.45,191,6.52,0.413,20.54,108.6736,21.49,22.53,33.34,0,110.9,13.2,22.32,153.0
"2009-09-06 01:25:00",1215819,4.935,190,4.937,0.794,20.8,108.6736,21.49,22.52,33.53,0,110.8,13.21,22.32,152.0
"2009-09-06 01:25:30",1215820,4.994,187,6.252,0.402,20.61,108.6736,21.49,22.51,33.14,0,110.8,13.21,22.32,149.0
"2009-09-06 01:26:00",1215821,5.678,180.8,6.044,0.54,20.57,108.6736,21.49,22.5,32.81,0,110.8,13.21,22.32,142.8
"2009-09-06 01:26:30",1215822,4.751,184.8,6.125,0.685,20.48,108.6736,21.49,22.48,32.82,0,110.8,13.21,22.32,146.8
"2009-09-06 01:27:00",1215823,5.508,201.1,3.308,0.262,20.44,108.6736,21.49,22.48,32.28,0,110.8,13.21,22.32,163.1
"2009-09-06 01:27:30",1215824,5.515,205,9.49,0.699,20.45,108.6736,21.49,22.49,32.38,0,110.8,13.21,22.32,167.0
"2009-09-06 01:28:00",1215825,4.141,222.8,5.575,0.466,20.46,108.6736,21.49,22.48,32.28,0,110.8,13.21,22.32,184.8
"2009-09-06 01:28:30",1215826,4.113,225.3,7.111,0.765,20.39,108.6736,21.49,22.49,32.57,0,110.8,13.21,22.32,187.3
"2009-09-06 01:29:00",1215827,3.428,229.6,5.553,0.434,20.31,108.6736,21.49,22.48,33.38,0,110.8,13.21,22.32,191.6
"2009-09-06 01:29:30",1215828,4.27,207.8,8.69,0.438,20.36,108.6736,21.49,22.49,33.33,0,110.8,13.21,22.32,169.8
"2009-09-06 01:30:00",1215829,5.327,205,3.498,0.422,20.47,108.6736,21.49,22.48,33.69,0,110.8,13.21,22.32,167.0
"2009-09-06 01:30:30",1215830,5.57,201.5,1.474,0.18,20.47,108.6736,21.49,22.5,32.98,0,110.8,13.21,22.32,163.5
"2009-09-06 01:31:00",1215831,5.683,202.4,1.879,0.113,20.42,108.6736,21.49,22.48,31.74,0,110.8,13.21,22.32,164.4
"2009-09-06 01:31:30",1215832,6.058,200.9,1.723,0.153,20.34,108.6736,21.49,22.48,31.37,0,110.8,13.21,22.32,162.9
"2009-09-06 01:32:00",1215833,5.925,208,6.244,0.32,20.23,108.6736,21.49,22.49,31.47,0,110.8,13.21,22.32,170.0
"2009-09-06 01:32:30",1215834,5.628,222.9,5.53,0.308,19.94,108.6739,21.49,22.48,31.77,0,110.8,13.21,22.32,184.9
"2009-09-06 01:33:00",1215835,7.147,207.1,4.429,0.326,20.2,108.6736,21.49,22.48,31.55,0,110.8,13.21,22.32,169.1
"2009-09-06 01:33:30",1215836,5.97,218.4,6.622,0.552,19.7,108.6739,21.49,22.49,32.09,0,110.8,13.21,22.32,180.4
"2009-09-06 01:34:00",1215837,5.384,231.7,5.29,0.384,19.55,108.6736,21.49,22.48,32.56,0,110.8,13.21,22.32,193.7
"2009-09-06 01:34:30",1215838,5.255,244,6.365,0.329,19.53,108.6736,21.49,22.46,32.81,0,110.8,13.21,22.32,206.0
"2009-09-06 01:35:00",1215839,5.086,231.6,2.938,0.245,19.6,108.6736,21.49,22.46,32.84,0,110.8,13.21,22.32,193.6
"2009-09-06 01:35:30",1215840,4.594,237.3,7.451,0.352,19.62,108.6728,21.49,22.46,32.76,0,110.8,13.21,22.31,199.3
"2009-09-06 01:36:00",1215841,4.207,245.7,3.484,0.285,19.69,108.6638,21.46,22.46,32.68,0,110.8,13.21,22.29,207.7
"2009-09-06 01:36:30",1215842,5.975,245,5.13,1.077,19.95,108.6514,21.43,22.45,32.21,0,110.8,13.21,22.26,207.0
"2009-09-06 01:37:00",1215843,6.744,259,5.655,0.543,20.05,108.6399,21.4,22.43,32.38,0,110.8,13.2,22.23,221.0
"2009-09-06 01:37:30",1215844,6.39,257.7,2.665,0.134,20.02,108.6402,21.4,22.41,32.2,0,110.8,13.2,22.23,219.7
"2009-09-06 01:38:00",1215845,6.151,251.6,6.756,0.35,20.04,108.6405,21.4,22.41,32.52,0,110.8,13.2,22.23,213.6
"2009-09-06 01:38:30",1215846,5.582,247,5.521,0.235,19.99,108.6301,21.38,22.39,32.84,0,110.8,13.2,22.20,209.0
"2009-09-06 01:39:00",1215847,5.152,239.2,7.725,0.535,20.08,108.6105,21.33,22.39,32.89,0,110.8,13.2,22.15,201.2
"2009-09-06 01:39:30",1215848,5.372,242.4,2.625,0.18,20.07,108.608,21.32,22.37,33.05,0,110.8,13.2,22.15,204.4
"2009-09-06 01:40:00",1215849,6.085,240.1,2.578,0.256,20.03,108.611,21.33,22.36,33.05,0,110.8,13.2,22.15,202.1
"2009-09-06 01:40:30",1215850,5.661,244.2,2.343,0.133,19.91,108.6104,21.33,22.36,33.05,0,110.8,13.21,22.15,206.2
"2009-09-06 01:41:00",1215851,5.878,238.1,3.54,0.419,19.97,108.6073,21.32,22.34,33.08,0,110.8,13.21,22.14,200.1
"2009-09-06 01:41:30",1215852,4.854,243.2,6.707,0.214,19.94,108.5953,21.29,22.32,33.09,0,110.8,13.21,22.11,205.2
"2009-09-06 01:42:00",1215853,5.029,251.7,3.594,0.174,19.98,108.5854,21.26,22.31,32.66,0,110.8,13.21,22.09,213.7
"2009-09-06 01:42:30",1215854,5.134,247.1,4.239,0.153,20.01,108.5886,21.27,22.3,32.53,0,110.8,13.21,22.10,209.1
"2009-09-06 01:43:00",1215855,5.822,255.3,4.283,0.254,19.92,108.591,21.28,22.3,31.36,0,110.8,13.21,22.10,217.3
"2009-09-06 01:43:30",1215856,5.227,247.7,4.4,0.462,19.82,108.5902,21.27,22.27,30.9,0,110.8,13.21,22.10,209.7
"2009-09-06 01:44:00",1215857,5.629,239,3.982,0.267,19.99,108.5838,21.26,22.27,31.59,0,110.8,13.21,22.08,201.0
"2009-09-06 01:44:30",1215858,5.291,244.2,2.626,0.116,20.02,108.5687,21.22,22.26,31.82,0,110.8,13.21,22.04,206.2
"2009-09-06 01:45:00",1215859,5.051,250.2,6.458,0.412,19.94,108.5636,21.21,22.25,31.27,0,110.8,13.22,22.03,212.2
"2009-09-06 01:45:30",1215860,5.395,261.5,3.705,0.469,20.18,108.5643,21.21,22.23,29.98,0,110.8,13.22,22.03,223.5
"2009-09-06 01:46:00",1215861,4.852,264.5,4.299,0.298,20,108.5643,21.21,22.23,30.31,0,110.8,13.22,22.03,226.5
"2009-09-06 01:46:30",1215862,5.313,267.3,6.638,0.641,20.09,108.5664,21.21,22.2,30.15,0,110.8,13.22,22.04,229.3
"2009-09-06 01:47:00",1215863,6.423,277.1,8.8,0.468,20.13,108.5686,21.22,22.2,29.84,0,110.8,13.22,22.04,239.1
"2009-09-06 01:47:30",1215864,5.244,261.4,5.779,0.47,20.25,108.5683,21.22,22.18,29.99,0,110.8,13.22,22.04,223.4